Location: Dvur Kralove nad Labem
(50.4330°N, 15.8170°E)
Time: 15:01:38
(UTC+02:00)

ISS - Pass Details

Date: 20 May 2018
Orbit: 402 x 407 km, 51.6° (Epoch: 24 May)

Event Time Altitude Azimuth Distance (km) Brightness Sun altitude
Rises 23:07:47 0° 235° (SW) 2,311 -0.1 -15.7°
Reaches altitude 10° 23:09:53 10° 229° (SW) 1,454 -1.2 -15.9°
Maximum altitude 23:13:02 48° 154° (SSE) 539 -3.7 -16.1°
Drops below altitude 10° 23:16:12 10° 79° (E) 1,458 -1.1 -16.3°
Sets 23:18:19 0° 74° (ENE) 2,320 0.0 -16.4°
